Location: Budapest
(47.5000°N, 19.0830°E)
Time: 20:15:36
(UTC+01:00)

Envisat - Visible Passes

Search period start: 22 January 2022 00:00
Search period end: 01 February 2022 00:00
Orbit: 764 x 766 km, 98.2° (Epoch: 22 January)

Date Brightness Start Highest point End Pass type
(mag) Time Alt. Az. Time Alt. Az. Time Alt. Az.
22 Jan 3.4 04:29:03 10° NNE 04:34:06 61° E 04:39:06 10° S visible
22 Jan 4.1 06:08:55 10° NNW 06:12:42 21° WNW 06:16:28 10° WSW visible
22 Jan 6.5 17:30:52 10° W 17:31:40 10° W 17:32:27 10° WNW visible
23 Jan 4.8 03:52:35 10° NE 03:57:01 29° E 04:01:25 10° SSE visible
23 Jan 3.3 05:31:24 10° N 05:36:09 41° WNW 05:40:52 10° SW visible
24 Jan 5.7 03:17:03 10° NE 03:19:45 14° E 03:22:25 10° ESE visible
24 Jan 2.8 04:54:18 10° NNE 04:59:24 82° WNW 05:04:29 10° SSW visible
24 Jan 4.6 06:35:07 10° NNW 06:37:38 14° NW 06:40:09 10° W visible
25 Jan 3.8 04:17:32 10° NNE 04:22:28 48° E 04:27:22 10° S visible
25 Jan 3.9 05:57:04 10° N 06:01:13 26° WNW 06:05:21 10° WSW visible
25 Jan 6.1 17:17:28 10° WSW 17:19:54 13° W 17:22:20 10° WNW visible
26 Jan 5.1 03:41:16 10° NE 03:45:20 24° E 03:49:22 10° SE visible
26 Jan 3.1 05:19:42 10° N 05:24:37 50° WNW 05:29:30 10° SW visible
27 Jan 6.0 03:06:32 10° ENE 03:07:59 11° E 03:09:24 10° ESE visible
27 Jan 3.0 04:42:42 10° NNE 04:47:49 81° ESE 04:52:53 10° SSW visible
27 Jan 4.4 06:23:02 10° NNW 06:26:12 17° WNW 06:29:21 10° W visible
28 Jan 4.3 04:06:03 10° NNE 04:10:48 39° E 04:15:32 10° SSE visible
28 Jan 3.7 05:45:17 10° N 05:49:44 31° WNW 05:54:10 10° SW visible
29 Jan 5.4 03:30:01 10° NE 03:33:37 19° E 03:37:11 10° SE visible
29 Jan 2.9 05:08:01 10° N 05:13:04 62° WNW 05:18:03 10° SSW visible
30 Jan 3.3 04:31:08 10° NNE 04:36:12 65° ESE 04:41:14 10° S visible
30 Jan 4.2 06:11:05 10° NNW 06:14:45 20° WNW 06:18:24 10° WSW visible
31 Jan 4.7 03:54:37 10° NNE 03:59:09 31° E 04:03:37 10° SSE visible
31 Jan 3.4 05:33:31 10° N 05:38:13 38° WNW 05:42:53 10° SW visible
